Voltar ao catálogo

FENGYUN 1C DEB

AtivoPO
NORAD 30177·DEBRIS·🇨🇳 China

Lançado May 10, 1999 de Taiyuan Satellite Launch Center

Loading…

Próximas Passagens (próximas 24 horas)

TLE

AtualizadoSource: Space-Track

Época: Sep 14, 2026, 05:27 UTC

1 30177U 99025UJ  26257.22771519  .00000769  00000-0  51681-3 0  9995
2 30177  98.6352 175.8350 0446424 132.1903  22.8683 13.63526282972167

Acompanhe FENGYUN 1C DEB em tempo real com AllMySat

Download on the App Store